| time (UTC) | temp F | wind direction | speed knots | gust knots | rain 1hr in | rain 24hr in | rain mn in | humidity % | barometer mb |
| 20260503181005 | 61 | 67 | 0.0 | 1.7 | 0.00 | 0.00 | 0.00 | 33 | 1019.3 |
| 20260503180526 | 61 | 130 | 0.0 | 1.7 | 0.00 | 0.00 | 0.00 | 33 | 1019.4 |
| 20260503180005 | 62 | 153 | 0.0 | 1.7 | 0.00 | 0.00 | 0.00 | 31 | 1019.3 |
| 20260503175505 | 62 | 261 | 0.0 | 1.7 | 0.00 | 0.00 | 0.00 | 30 | 1019.3 |
| 20260503175006 | 63 | 267 | 0.0 | 1.7 | 0.00 | 0.00 | 0.00 | 30 | 1019.3 |
| 20260503174505 | 63 | 214 | 0.9 | 3.5 | 0.00 | 0.00 | 0.00 | 28 | 1019.2 |
| 20260503174005 | 63 | 196 | 0.9 | 3.5 | 0.00 | 0.00 | 0.00 | 27 | 1019.1 |
| 20260503173505 | 64 | 217 | 0.9 | 3.5 | 0.00 | 0.00 | 0.00 | 27 | 1019.1 |
| 20260503173026 | 64 | 197 | 1.7 | 3.5 | 0.00 | 0.00 | 0.00 | 27 | 1019.1 |
| 20260503172506 | 64 | 191 | 2.6 | 3.5 | 0.00 | 0.00 | 0.00 | 27 | 1019.2 |
| 20260503172005 | 65 | 195 | 2.6 | 3.5 | 0.00 | 0.00 | 0.00 | 26 | 1019.2 |
| 20260503171505 | 65 | 191 | 2.6 | 3.5 | 0.00 | 0.00 | 0.00 | 24 | 1019.0 |
| 20260503171005 | 65 | 190 | 1.7 | 3.5 | 0.00 | 0.00 | 0.00 | 24 | 1018.9 |
| 20260503170505 | 65 | 199 | 1.7 | 3.5 | 0.00 | 0.00 | 0.00 | 23 | 1019.0 |
| 20260503151005 | 67 | 64 | 3.5 | 7.0 | 0.00 | 0.00 | 0.00 | 22 | 1019.1 |
| 20260503150504 | 67 | 132 | 3.5 | 7.0 | 0.00 | 0.00 | 0.00 | 22 | 1019.1 |
| 20260503131004 | 68 | 55 | 3.5 | 7.8 | 0.00 | 0.00 | 0.00 | 22 | 1020.3 |
| 20260503130504 | 68 | 53 | 3.5 | 7.0 | 0.00 | 0.00 | 0.00 | 22 | 1020.3 |
| 20260503110504 | 67 | 180 | 5.2 | 9.6 | 0.00 | 0.00 | 0.00 | 25 | 1021.4 |
| 20260503090504 | 62 | 132 | 3.5 | 7.0 | 0.00 | 0.00 | 0.00 | 34 | 1022.4 |
| 20260503081504 | 58 | 49 | 2.6 | 4.3 | 0.00 | 0.00 | 0.00 | 40 | 1022.7 |
| 20260503081003 | 57 | 75 | 1.7 | 4.3 | 0.00 | 0.00 | 0.00 | 40 | 1022.8 |
| 20260503080503 | 56 | 40 | 0.9 | 2.6 | 0.00 | 0.00 | 0.00 | 41 | 1022.8 |
| 20260503072503 | 51 | 44 | 0.9 | 3.5 | 0.00 | 0.00 | 0.00 | 58 | 1023.1 |
| 20260503072003 | 51 | 40 | 0.9 | 3.5 | 0.00 | 0.00 | 0.00 | 60 | 1023.1 |
| 20260503071524 | 50 | 91 | 0.9 | 2.6 | 0.00 | 0.00 | 0.00 | 61 | 1023.1 |
| 20260503071003 | 50 | 58 | 0.9 | 2.6 | 0.00 | 0.00 | 0.00 | 61 | 1023.1 |
| 20260503070504 | 49 | 56 | 0.9 | 3.5 | 0.00 | 0.00 | 0.00 | 61 | 1023.2 |
| 20260503055007 | 42 | 193 | 0.9 | 2.6 | 0.00 | 0.00 | 0.00 | 75 | 1023.6 |
| 20260503054507 | 41 | 197 | 0.9 | 2.6 | 0.00 | 0.00 | 0.00 | 76 | 1023.6 |
| 20260503054007 | 41 | 209 | 0.9 | 1.7 | 0.00 | 0.00 | 0.00 | 77 | 1023.7 |
| 20260503053507 | 40 | 200 | 0.0 | 1.7 | 0.00 | 0.00 | 0.00 | 78 | 1023.5 |
| 20260503053028 | 40 | 205 | 0.0 | 1.7 | 0.00 | 0.00 | 0.00 | 78 | 1023.7 |
| 20260503052507 | 39 | 244 | 0.0 | 1.7 | 0.00 | 0.00 | 0.00 | 78 | 1023.6 |
| 20260503052028 | 39 | 247 | 0.0 | 1.7 | 0.00 | 0.00 | 0.00 | 78 | 1023.6 |
| 20260503051507 | 39 | 225 | 0.0 | 1.7 | 0.00 | 0.00 | 0.00 | 79 | 1023.8 |
| 20260503051007 | 39 | 211 | 0.9 | 1.7 | 0.00 | 0.00 | 0.00 | 79 | 1023.9 |
| 20260503050507 | 38 | 189 | 0.9 | 2.6 | 0.00 | 0.00 | 0.00 | 79 | 1023.8 |
| 20260503050007 | 38 | 173 | 1.7 | 2.6 | 0.00 | 0.00 | 0.00 | 79 | 1023.9 |
| 20260503045508 | 37 | 164 | 0.9 | 2.6 | 0.00 | 0.00 | 0.00 | 78 | 1023.9 |
| 20260503045007 | 37 | 157 | 0.0 | 1.7 | 0.00 | 0.00 | 0.00 | 78 | 1023.9 |
| 20260503044507 | 37 | 154 | 0.0 | 1.7 | 0.00 | 0.00 | 0.00 | 79 | 1023.9 |
| 20260503044007 | 37 | 100 | 0.0 | 1.7 | 0.00 | 0.00 | 0.00 | 79 | 1023.9 |
| 20260503043528 | 36 | 42 | 0.0 | 1.7 | 0.00 | 0.00 | 0.00 | 79 | 1023.9 |
| 20260503043007 | 36 | 39 | 0.0 | 1.7 | 0.00 | 0.00 | 0.00 | 79 | 1023.8 |
| 20260503042507 | 36 | 42 | 0.0 | 1.7 | 0.00 | 0.00 | 0.00 | 79 | 1023.9 |
| 20260503042028 | 36 | 17 | 0.0 | 0.9 | 0.00 | 0.00 | 0.00 | 79 | 1023.9 |
| 20260503041507 | 35 | 42 | 0.0 | 1.7 | 0.00 | 0.00 | 0.00 | 79 | 1023.8 |
| 20260503041007 | 35 | 23 | 0.9 | 1.7 | 0.00 | 0.00 | 0.00 | 79 | 1023.9 |
| 20260503040507 | 35 | 6 | 0.9 | 1.7 | 0.00 | 0.00 | 0.00 | 79 | 1023.8 |
| 20260503040007 | 35 | 8 | 0.0 | 1.7 | 0.00 | 0.00 | 0.00 | 79 | 1023.7 |
| 20260503035507 | 35 | 360 | 0.0 | 1.7 | 0.00 | 0.00 | 0.00 | 79 | 1023.7 |
| 20260503035007 | 35 | 360 | 0.0 | 1.7 | 0.00 | 0.00 | 0.00 | 79 | 1023.9 |
| 20260503034507 | 35 | 360 | 0.0 | 1.7 | 0.00 | 0.00 | 0.00 | 79 | 1023.8 |
| 20260503034007 | 35 | 355 | 0.0 | 1.7 | 0.00 | 0.00 | 0.00 | 79 | 1023.7 |
| 20260503033507 | 35 | 73 | 0.9 | 1.7 | 0.00 | 0.00 | 0.00 | 79 | 1023.7 |
| 20260503033007 | 36 | 103 | 0.9 | 1.7 | 0.00 | 0.00 | 0.00 | 78 | 1023.6 |
| 20260503032528 | 36 | 154 | 0.0 | 1.7 | 0.00 | 0.00 | 0.00 | 78 | 1023.6 |
| 20260503032006 | 36 | 108 | 0.0 | 1.7 | 0.00 | 0.00 | 0.00 | 79 | 1023.5 |
| 20260503031507 | 36 | 30 | 0.0 | 0.9 | 0.00 | 0.00 | 0.00 | 79 | 1023.4 |
| 20260503031007 | 36 | 33 | 0.0 | 0.9 | 0.00 | 0.00 | 0.00 | 79 | 1023.5 |
| 20260503030507 | 36 | 135 | 0.0 | 0.9 | 0.00 | 0.00 | 0.00 | 79 | 1023.3 |
| 20260503030007 | 36 | 135 | 0.0 | 0.9 | 0.00 | 0.00 | 0.00 | 78 | 1023.4 |
| 20260503025528 | 36 | 135 | 0.0 | 0.9 | 0.00 | 0.00 | 0.00 | 78 | 1023.5 |
| 20260503025027 | 36 | 135 | 0.0 | 0.9 | 0.00 | 0.00 | 0.00 | 77 | 1023.5 |
| 20260503024506 | 36 | 135 | 0.0 | 0.9 | 0.00 | 0.00 | 0.00 | 77 | 1023.3 |
| 20260503024007 | 36 | 135 | 0.9 | 1.7 | 0.00 | 0.00 | 0.00 | 77 | 1023.3 |
| 20260503023506 | 37 | 124 | 0.9 | 1.7 | 0.00 | 0.00 | 0.00 | 77 | 1023.4 |
| 20260503023007 | 37 | 64 | 0.9 | 2.6 | 0.00 | 0.00 | 0.00 | 77 | 1023.3 |
| 20260503022527 | 37 | 29 | 0.9 | 2.6 | 0.00 | 0.00 | 0.00 | 77 | 1023.3 |
| 20260503022007 | 37 | 29 | 0.9 | 2.6 | 0.00 | 0.00 | 0.00 | 78 | 1023.3 |
| 20260503021507 | 37 | 90 | 0.0 | 0.9 | 0.00 | 0.00 | 0.00 | 77 | 1023.4 |
| 20260503021006 | 37 | 0 | 0.0 | 0.0 | 0.00 | 0.00 | 0.00 | 77 | 1023.3 |
| 20260503020507 | 37 | 0 | 0.0 | 0.0 | 0.00 | 0.00 | 0.00 | 76 | 1023.4 |
| 20260503020007 | 37 | 90 | 0.0 | 0.9 | 0.00 | 0.00 | 0.00 | 76 | 1023.3 |
| 20260503015506 | 38 | 90 | 0.0 | 1.7 | 0.00 | 0.00 | 0.00 | 76 | 1023.3 |
| 20260503015006 | 38 | 90 | 0.0 | 1.7 | 0.00 | 0.00 | 0.00 | 77 | 1023.3 |
| 20260503014507 | 38 | 90 | 0.0 | 1.7 | 0.00 | 0.00 | 0.00 | 77 | 1023.3 |
| 20260503014006 | 38 | 90 | 0.0 | 0.9 | 0.00 | 0.00 | 0.00 | 77 | 1023.3 |
| 20260503013527 | 38 | 0 | 0.0 | 0.0 | 0.00 | 0.00 | 0.00 | 76 | 1023.2 |
| 20260503013007 | 38 | 90 | 0.0 | 1.7 | 0.00 | 0.00 | 0.00 | 76 | 1023.3 |
| 20260503012506 | 38 | 90 | 0.0 | 1.7 | 0.00 | 0.00 | 0.00 | 75 | 1023.2 |
| 20260503012006 | 39 | 0 | 0.0 | 0.0 | 0.00 | 0.00 | 0.00 | 75 | 1023.1 |
| 20260503011506 | 39 | 90 | 0.0 | 0.9 | 0.00 | 0.00 | 0.00 | 75 | 1023.2 |
| 20260503011006 | 39 | 90 | 0.0 | 1.7 | 0.00 | 0.00 | 0.00 | 74 | 1023.1 |
| 20260503010527 | 39 | 90 | 0.0 | 1.7 | 0.00 | 0.00 | 0.00 | 74 | 1023.1 |
| 20260503010006 | 39 | 23 | 0.0 | 1.7 | 0.00 | 0.00 | 0.00 | 74 | 1023.1 |
| 20260503005506 | 39 | 15 | 0.0 | 1.7 | 0.00 | 0.00 | 0.00 | 74 | 1023.2 |
| 20260503005007 | 40 | 21 | 0.9 | 2.6 | 0.00 | 0.00 | 0.00 | 74 | 1023.1 |
| 20260503004506 | 40 | 23 | 0.9 | 2.6 | 0.00 | 0.00 | 0.00 | 74 | 1023.2 |
| 20260503004006 | 40 | 225 | 0.0 | 2.6 | 0.00 | 0.00 | 0.00 | 74 | 1023.0 |
| 20260503003506 | 40 | 225 | 0.0 | 1.7 | 0.00 | 0.00 | 0.00 | 74 | 1023.1 |
| 20260503003006 | 40 | 225 | 0.0 | 1.7 | 0.00 | 0.00 | 0.00 | 73 | 1023.1 |
| 20260503002507 | 40 | 225 | 0.0 | 1.7 | 0.00 | 0.00 | 0.00 | 73 | 1023.1 |
| 20260503002006 | 41 | 225 | 0.0 | 1.7 | 0.00 | 0.00 | 0.00 | 73 | 1023.1 |
| 20260503001506 | 41 | 225 | 0.0 | 0.9 | 0.00 | 0.00 | 0.00 | 73 | 1023.0 |
| 20260503001006 | 41 | 225 | 0.0 | 0.9 | 0.00 | 0.00 | 0.00 | 73 | 1023.0 |
| 20260503000506 | 41 | 225 | 0.0 | 0.9 | 0.00 | 0.00 | 0.00 | 72 | 1023.0 |
| 20260503000027 | 41 | 225 | 0.0 | 0.9 | 0.00 | 0.00 | 0.00 | 72 | 1023.0 |
| 20260502235506 | 41 | 225 | 0.0 | 1.7 | 0.00 | 0.00 | 0.00 | 72 | 1023.2 |
| 20260502235006 | 41 | 225 | 0.0 | 1.7 | 0.00 | 0.00 | 0.00 | 72 | 1023.1 |
| 20260502234506 | 41 | 225 | 0.0 | 1.7 | 0.00 | 0.00 | 0.00 | 72 | 1023.1 |
| 20260502234006 | 41 | 225 | 0.0 | 1.7 | 0.00 | 0.00 | 0.00 | 72 | 1023.1 |
| 20260502233506 | 42 | 223 | 0.9 | 2.6 | 0.00 | 0.00 | 0.00 | 72 | 1023.0 |
| 20260502233027 | 42 | 195 | 0.9 | 2.6 | 0.00 | 0.00 | 0.00 | 71 | 1023.1 |
| 20260502232527 | 42 | 126 | 0.0 | 2.6 | 0.00 | 0.00 | 0.00 | 70 | 1023.0 |
| 20260502232006 | 43 | 90 | 0.0 | 0.9 | 0.00 | 0.00 | 0.00 | 70 | 1022.9 |
| 20260502231506 | 43 | 69 | 0.0 | 2.6 | 0.00 | 0.00 | 0.00 | 70 | 1023.0 |
| 20260502231006 | 43 | 46 | 0.9 | 2.6 | 0.00 | 0.00 | 0.00 | 69 | 1023.1 |
| 20260502230506 | 44 | 32 | 0.9 | 2.6 | 0.00 | 0.00 | 0.00 | 69 | 1023.1 |
| 20260502230006 | 44 | 360 | 0.0 | 1.7 | 0.00 | 0.00 | 0.00 | 64 | 1023.1 |
| 20260502225506 | 44 | 90 | 0.0 | 0.9 | 0.00 | 0.00 | 0.00 | 64 | 1023.1 |
| 20260502225006 | 44 | 90 | 0.0 | 1.7 | 0.00 | 0.00 | 0.00 | 64 | 1023.0 |
| 20260502224506 | 44 | 70 | 0.0 | 1.7 | 0.00 | 0.00 | 0.00 | 63 | 1023.1 |
| 20260502224006 | 45 | 62 | 0.9 | 1.7 | 0.00 | 0.00 | 0.00 | 63 | 1023.1 |
| 20260502223506 | 45 | 51 | 0.9 | 1.7 | 0.00 | 0.00 | 0.00 | 63 | 1023.0 |
| 20260502223006 | 45 | 22 | 0.9 | 1.7 | 0.00 | 0.00 | 0.00 | 64 | 1023.1 |
| 20260502222527 | 45 | 11 | 0.0 | 1.7 | 0.00 | 0.00 | 0.00 | 64 | 1023.0 |
| 20260502222027 | 45 | 0 | 0.0 | 0.0 | 0.00 | 0.00 | 0.00 | 64 | 1023.0 |
| 20260502221507 | 45 | 0 | 0.0 | 0.0 | 0.00 | 0.00 | 0.00 | 63 | 1023.0 |
| 20260502221007 | 46 | 0 | 0.0 | 0.0 | 0.00 | 0.00 | 0.00 | 62 | 1022.9 |
| 20260502220506 | 46 | 130 | 0.0 | 1.7 | 0.00 | 0.00 | 0.00 | 62 | 1022.9 |
| 20260502220006 | 46 | 34 | 0.0 | 1.7 | 0.00 | 0.00 | 0.00 | 61 | 1022.9 |
| 20260502215506 | 47 | 13 | 0.9 | 1.7 | 0.00 | 0.00 | 0.00 | 61 | 1023.0 |
| 20260502215006 | 47 | 45 | 0.9 | 3.5 | 0.00 | 0.00 | 0.00 | 61 | 1022.9 |
| 20260502214506 | 47 | 17 | 1.7 | 3.5 | 0.00 | 0.00 | 0.00 | 60 | 1022.9 |
| 20260502214005 | 47 | 18 | 0.9 | 3.5 | 0.00 | 0.00 | 0.00 | 60 | 1022.8 |
| 20260502213505 | 47 | 90 | 0.9 | 1.7 | 0.00 | 0.00 | 0.00 | 61 | 1022.8 |
| 20260502213005 | 48 | 90 | 0.0 | 1.7 | 0.00 | 0.00 | 0.00 | 61 | 1022.8 |
| 20260502212506 | 48 | 123 | 0.9 | 1.7 | 0.00 | 0.00 | 0.00 | 61 | 1022.8 |
| 20260502212006 | 48 | 166 | 0.9 | 1.7 | 0.00 | 0.00 | 0.00 | 61 | 1022.9 |
| 20260502211506 | 49 | 94 | 0.9 | 2.6 | 0.00 | 0.00 | 0.00 | 60 | 1022.8 |
| 20260502211028 | 49 | 52 | 0.9 | 2.6 | 0.00 | 0.00 | 0.00 | 60 | 1022.7 |
| 20260502210527 | 49 | 158 | 0.9 | 3.5 | 0.00 | 0.00 | 0.00 | 60 | 1022.8 |
| 20260502210027 | 50 | 90 | 1.7 | 3.5 | 0.00 | 0.00 | 0.00 | 59 | 1022.8 |
| 20260502205505 | 50 | 51 | 0.9 | 3.5 | 0.00 | 0.00 | 0.00 | 58 | 1022.8 |
| 20260502205006 | 51 | 152 | 0.9 | 1.7 | 0.00 | 0.00 | 0.00 | 57 | 1022.7 |
| 20260502204526 | 51 | 156 | 0.0 | 1.7 | 0.00 | 0.00 | 0.00 | 55 | 1022.7 |
| 20260502204005 | 51 | 45 | 0.0 | 1.7 | 0.00 | 0.00 | 0.00 | 53 | 1022.6 |
| 20260502203505 | 52 | 40 | 0.9 | 2.6 | 0.00 | 0.00 | 0.00 | 52 | 1022.6 |
| 20260502203006 | 52 | 41 | 0.9 | 2.6 | 0.00 | 0.00 | 0.00 | 51 | 1022.5 |
| 20260502202506 | 53 | 26 | 0.9 | 2.6 | 0.00 | 0.00 | 0.00 | 51 | 1022.5 |
| 20260502202006 | 53 | 34 | 0.9 | 3.5 | 0.00 | 0.00 | 0.00 | 48 | 1022.5 |
| 20260502201506 | 53 | 47 | 0.9 | 3.5 | 0.00 | 0.00 | 0.00 | 49 | 1022.4 |
| 20260502201006 | 54 | 31 | 1.7 | 3.5 | 0.00 | 0.00 | 0.00 | 49 | 1022.4 |
| 20260502200505 | 54 | 33 | 2.6 | 3.5 | 0.00 | 0.00 | 0.00 | 49 | 1022.3 |
| 20260502200005 | 54 | 45 | 1.7 | 3.5 | 0.00 | 0.00 | 0.00 | 50 | 1022.3 |
| 20260502195505 | 54 | 98 | 0.9 | 1.7 | 0.00 | 0.00 | 0.00 | 50 | 1022.3 |
| 20260502195006 | 55 | 180 | 0.9 | 1.7 | 0.00 | 0.00 | 0.00 | 49 | 1022.3 |
| 20260502194505 | 55 | 174 | 0.0 | 1.7 | 0.00 | 0.00 | 0.00 | 48 | 1022.3 |
| 20260502194005 | 56 | 17 | 0.9 | 3.5 | 0.00 | 0.00 | 0.00 | 45 | 1022.2 |
| 20260502193527 | 56 | 8 | 0.9 | 3.5 | 0.00 | 0.00 | 0.00 | 44 | 1022.2 |
| 20260502193005 | 56 | 357 | 0.9 | 2.6 | 0.00 | 0.00 | 0.00 | 45 | 1022.1 |
| 20260502192505 | 57 | 355 | 0.9 | 2.6 | 0.00 | 0.00 | 0.00 | 45 | 1022.0 |
| 20260502192005 | 57 | 1 | 1.7 | 3.5 | 0.00 | 0.00 | 0.00 | 45 | 1022.0 |
| 20260502191505 | 57 | 22 | 2.6 | 3.5 | 0.00 | 0.00 | 0.00 | 45 | 1021.9 |
| 20260502191005 | 58 | 42 | 3.5 | 5.2 | 0.00 | 0.00 | 0.00 | 45 | 1021.8 |
| 20260502190505 | 58 | 38 | 3.5 | 5.2 | 0.00 | 0.00 | 0.00 | 44 | 1021.9 |
| 20260502190006 | 58 | 32 | 2.6 | 4.3 | 0.00 | 0.00 | 0.00 | 44 | 1021.8 |
| 20260502185505 | 59 | 45 | 1.7 | 3.5 | 0.00 | 0.00 | 0.00 | 43 | 1021.7 |
| 20260502185026 | 59 | 52 | 1.7 | 3.5 | 0.00 | 0.00 | 0.00 | 42 | 1021.7 |
| 20260502184505 | 60 | 45 | 1.7 | 3.5 | 0.00 | 0.00 | 0.00 | 42 | 1021.7 |
| 20260502184005 | 60 | 44 | 2.6 | 5.2 | 0.00 | 0.00 | 0.00 | 42 | 1021.7 |
| 20260502183526 | 60 | 40 | 2.6 | 5.2 | 0.00 | 0.00 | 0.00 | 42 | 1021.5 |
| 20260502183005 | 60 | 37 | 2.6 | 4.3 | 0.00 | 0.00 | 0.00 | 41 | 1021.4 |
| 20260502182505 | 61 | 27 | 2.6 | 4.3 | 0.00 | 0.00 | 0.00 | 41 | 1021.3 |
| 20260502182005 | 61 | 21 | 1.7 | 3.5 | 0.00 | 0.00 | 0.00 | 41 | 1021.2 |
| 20260502181505 | 62 | 38 | 1.7 | 3.5 | 0.00 | 0.00 | 0.00 | 41 | 1021.2 |